Lid_Strength_Index
1 1 1 2 2 3 3 2 2 2 2 1 1 1 1 0 0 1 3 0 3 7 7 5 5 7 7 7 9 8 8 7 8 11 12 12 13 12 12 12 12 12 12 13 12 15 17 8 8 11 8 5 5 5
-0 -0 0 0 1 2 2 2 3 2 1 1 1 1 0 0 0 0 4 1 0 5 7 3 3 3 4 4 6 6 8 8 7 9 8 8 11 11 11 14 9 13 10 13 11 10 7 6 6 4 4 5 5 4
-0 -1 -0 0 0 1 1 2 2 1 1 1 0 0 0 0 0 0 3 1 2 6 7 7 7 2 1 2 1 7 6 5 5 4 7 8 12 9 12 13 12 10 8 10 10 8 7 5 4 4 4 5 4 3
-1 -1 -0 -0 -0 0 0 1 0 -0 0 0 0 0 0 0 0 0 1 0 2 5 8 7 3 4 1 1 2 2 3 2 3 4 7 9 10 8 10 10 10 9 8 9 9 8 7 5 4 4 4 4 4 4
-1 -1 -0 0 0 -0 -0 -0 -1 -1 -0 0 0 1 0 0 0 -0 -0 1 1 4 8 7 4 3 2 2 2 2 2 4 5 7 8 10 8 8 9 8 11 8 9 10 11 7 7 6 4 4 5 4 4 4
-0 -0 0 0 0 0 -0 -1 -1 -1 -1 -0 0 1 1 -0 -0 1 5 1 -1 0 5 10 4 4 2 2 3 2 3 4 5 7 9 8 6 8 11 12 9 7 6 5 8 5 5 4 4 5 6 5 4 4
-0 0 0 1 1 1 -0 0 -1 -1 -0 -0 0 0 0 -1 -1 3 4 0 -2 -1 5 9 8 3 2 2 3 3 3 4 5 7 9 9 8 7 10 14 9 6 5 5 5 6 7 6 6 5 4 4 4 4
0 1 1 1 1 0 1 -0 0 -0 0 0 -1 -1 -1 -1 -0 1 -1 -1 -1 2 5 9 9 6 2 5 6 3 6 5 6 7 7 8 7 8 13 10 7 6 5 6 6 6 7 6 5 5 4 4 6 6
0 0 1 1 1 1 0 -0 -0 -1 -0 -0 -1 -1 -0 1 3 2 -1 -1 -2 2 6 7 9 10 2 5 4 5 5 9 5 8 8 8 11 14 10 9 8 7 7 7 7 7 7 7 7 6 5 5 6 6
1 0 1 1 1 1 0 0 -0 -1 -1 -1 -0 2 6 2 -1 -1 1 4 4 3 4 8 5 8 5 5 6 6 5 8 11 8 7 11 12 9 8 7 6 6 7 7 9 9 8 7 6 5 6 6 5 5
1 0 1 1 0 0 -0 -0 -0 -1 -1 1 4 5 0 -1 1 3 7 8 8 9 6 6 5 8 3 8 8 6 8 8 12 10 11 11 12 9 6 6 6 5 5 5 5 5 5 6 6 6 6 6 7 7
1 0 0 0 0 -0 -0 -0 -0 -0 0 1 1 0 1 4 7 9 9 8 8 9 6 7 6 5 6 4 8 8 11 9 14 8 12 14 9 6 6 5 5 5 5 5 4 4 4 6 5 7 8 8 8 8
1 0 0 -0 -0 -1 -1 -1 -1 -1 -1 0 2 6 6 7 10 11 12 10 10 6 6 7 9 6 6 6 8 9 12 13 8 13 13 10 7 6 6 5 5 4 5 5 5 4 5 6 7 8 9 10 9 10
1 0 -0 -0 -0 -1 -1 -1 -1 -1 1 5 7 10 9 10 9 8 8 7 5 5 5 6 7 7 6 9 9 12 10 10 14 15 14 10 8 9 6 6 6 7 7 8 6 6 7 7 9 9 10 10 11 12
1 0 0 -0 -0 -0 -1 -1 -1 -0 3 6 6 10 9 6 5 5 4 5 4 4 5 7 7 7 9 10 10 10 13 15 14 14 11 8 9 10 8 6 8 9 9 8 7 7 8 9 10 11 10 10 11 13
0 0 0 -0 -1 -1 -1 -0 0 3 4 6 6 8 6 7 7 6 6 6 4 4 5 6 9 10 11 11 12 13 14 15 13 11 10 10 10 10 9 8 8 8 8 9 9 9 10 11 11 11 11 12 13 12
0 1 -0 -0 -1 -1 -0 2 4 5 6 7 7 5 6 6 6 5 5 5 2 6 8 7 11 12 9 12 13 11 12 12 11 10 9 10 10 9 10 9 9 9 9 9 10 10 11 11 11 11 13 12 12 12
1 0 -1 -1 -0 1 2 3 4 5 8 6 7 6 5 4 5 5 4 4 5 6 6 9 8 11 14 14 13 10 10 10 10 8 9 10 9 9 10 10 9 9 10 11 11 11 10 10 10 11 11 11 11 10
1 -0 -0 -0 1 3 5 5 4 8 7 5 5 4 4 4 4 3 4 3 3 3 5 8 11 12 12 10 10 10 10 11 10 9 9 9 9 9 10 10 9 9 9 9 9 9 9 8 9 9 9 9 9 9
-0 -0 0 0 1 4 6 6 4 6 7 6 5 5 5 5 4 4 4 4 5 6 8 10 10 9 8 8 8 8 9 9 8 10 10 9 9 8 9 9 9 9 8 8 8 9 8 8 7 7 6 7 7 7
1 1 1 2 3 4 5 6 6 6 5 6 5 5 6 5 6 6 6 4 7 9 9 7 7 7 6 7 6 8 8 7 8 9 9 9 8 8 8 7 7 8 8 7 7 8 7 7 7 7 6 6 6 6
2 1 3 3 5 5 6 4 5 4 5 5 5 5 6 7 7 6 5 8 8 6 6 7 7 7 7 8 8 7 7 8 8 10 11 10 9 8 8 7 7 7 7 7 6 7 7 7 6 6 8 8 7 6
2 4 4 5 7 7 7 4 7 6 8 8 6 7 7 7 6 4 8 7 6 4 6 7 7 6 7 7 7 7 7 8 9 9 8 8 8 7 7 7 6 7 7 7 6 6 7 9 9 8 8 7 9 10
3 6 6 7 7 8 6 7 6 7 7 8 8 9 8 7 5 8 9 8 5 5 7 7 6 7 7 7 7 8 8 8 9 8 7 7 7 7 7 7 7 6 6 6 6 6 7 9 8 8 9 10 10 10
8 8 7 9 6 8 9 9 8 8 10 8 9 9 8 6 9 9 9 7 6 6 7 7 8 8 9 7 7 7 7 7 8 9 8 7 7 7 8 7 7 6 5 7 8 10 10 10 10 10 10 10 10 10
9 7 8 8 8 9 9 10 10 9 9 9 9 7 7 8 10 11 8 7 7 8 9 9 10 8 8 7 8 8 7 6 6 9 9 6 6 6 7 7 7 8 5 6 8 10 10 10 10 10 10 9 10 9
10 9 7 5 6 6 8 7 7 8 10 10 9 9 9 11 11 8 5 7 9 8 9 10 9 8 8 9 9 9 8 8 8 10 9 8 8 6 5 6 8 8 6 6 8 9 10 10 10 9 9 9 9 9
7 7 9 8 7 6 9 9 9 10 8 7 7 10 11 10 9 8 8 8 10 10 10 9 9 8 10 10 10 10 11 10 10 9 8 10 10 10 9 9 9 11 9 10 10 10 10 9 9 9 9 9 9 9
8 6 7 9 8 8 8 8 8 6 5 6 9 9 8 7 9 10 9 10 10 10 10 11 11 10 10 10 10 10 9 8 8 11 12 12 11 12 10 10 10 9 9 10 11 10 9 10 10 10 9 9 9 9
8 5 8 9 9 9 7 5 6 5 4 5 6 7 8 9 9 8 10 10 10 11 11 11 10 10 10 10 11 12 11 11 11 10 10 11 11 11 11 10 10 10 10 10 10 10 11 10 10 9 9 9 9 9
6 7 8 8 9 7 6 6 5 5 6 7 7 8 9 9 9 9 10 11 10 10 10 10 11 11 11 11 10 11 12 11 11 10 10 10 11 11 11 10 10 10 10 10 10 9 9 9 9 9 9 9 9 9
7 8 8 10 9 7 6 7 7 7 7 8 9 9 9 10 12 10 10 10 10 11 11 11 11 12 11 11 11 11 11 11 11 11 11 11 11 10 10 10 10 10 9 9 9 9 9 9 9 9 9 9 10 10
8 8 8 8 9 9 8 7 8 9 8 9 9 9 10 11 13 11 9 10 10 10 11 11 11 11 11 11 11 11 11 11 11 12 12 12 11 11 10 10 9 9 9 9 9 9 8 8 9 9 10 11 12 12